UAE500 OMDB-VABB

Flight info

Callsign UAE500
Flight time N/A
Altitude 39000
Route ANVIX L223 TARDI N629 GIDAN N881 SETSI P307 PARAR N571 SUGID
Aircraft A388/J-SADE2E3FGHIJ3J4J5M1RWXY/LB1D1

Departure

Time 2026-04-21 10:18
Airport Dubai International Airport (OMDB)

Arrival

Time N/A
Airport Chhatrapati Shivaji Maharaj International Airport (VABB)
Time Latitude Longitude Altitude Speed Heading
2026-04-21 09:54 25.24928 55.36224 31 ft 0 kts 209°
2026-04-21 10:06 25.24937 55.36229 33 ft 2 kts 207°
2026-04-21 10:07 25.24952 55.36237 29 ft 2 kts 205°
2026-04-21 10:07 25.24967 55.36244 35 ft 2 kts 200°
2026-04-21 10:07 25.24983 55.36248 30 ft 2 kts 192°
2026-04-21 10:07 25.24999 55.36249 32 ft 2 kts 180°
2026-04-21 10:08 25.25015 55.36245 32 ft 2 kts 159°
2026-04-21 10:08 25.25027 55.36235 33 ft 2 kts 139°
2026-04-21 10:08 25.25034 55.36225 33 ft 1 kts 128°
2026-04-21 10:08 25.25036 55.36224 31 ft 0 kts 126°
2026-04-21 10:09 25.25035 55.36224 31 ft 0 kts 126°
2026-04-21 10:12 25.25029 55.36234 33 ft 5 kts 119°
2026-04-21 10:13 25.25003 55.36293 33 ft 12 kts 110°
2026-04-21 10:13 25.24988 55.36409 26 ft 18 kts 95°
2026-04-21 10:13 25.24954 55.36554 26 ft 19 kts 120°
2026-04-21 10:13 25.24887 55.36686 26 ft 21 kts 113°
2026-04-21 10:14 25.24846 55.36849 28 ft 23 kts 108°
2026-04-21 10:14 25.24778 55.36991 27 ft 25 kts 120°
2026-04-21 10:14 25.24686 55.37160 27 ft 26 kts 123°
2026-04-21 10:14 25.24590 55.37320 26 ft 24 kts 122°
2026-04-21 10:15 25.24508 55.37467 26 ft 15 kts 120°
2026-04-21 10:15 25.24457 55.37561 31 ft 13 kts 122°
2026-04-21 10:15 25.24403 55.37656 26 ft 17 kts 122°
2026-04-21 10:15 25.24416 55.37760 27 ft 15 kts 46°
2026-04-21 10:16 25.24500 55.37831 28 ft 15 kts 35°
2026-04-21 10:16 25.24590 55.37902 28 ft 17 kts 34°
2026-04-21 10:16 25.24694 55.37974 28 ft 18 kts 32°
2026-04-21 10:16 25.24796 55.38011 30 ft 14 kts 345°
2026-04-21 10:17 25.24846 55.37955 30 ft 8 kts 300°
2026-04-21 10:17 25.24849 55.37950 30 ft 2 kts 300°
2026-04-21 10:17 25.24949 55.37771 30 ft 64 kts 303°
2026-04-21 10:17 25.25314 55.37120 31 ft 131 kts 301°
2026-04-21 10:18 25.25872 55.36122 36 ft 170 kts 302°
2026-04-21 10:18 25.26509 55.34958 249 ft 182 kts 300°
2026-04-21 10:18 25.27164 55.33751 612 ft 182 kts 302°
2026-04-21 10:18 25.27822 55.32554 1036 ft 182 kts 304°
2026-04-21 10:19 25.28477 55.31345 1444 ft 186 kts 304°
2026-04-21 10:19 25.29136 55.30126 1844 ft 189 kts 303°
2026-04-21 10:19 25.29649 55.28779 2291 ft 197 kts 278°
2026-04-21 10:19 25.29382 55.27270 2622 ft 209 kts 246°
2026-04-21 10:20 25.28570 55.25901 2851 ft 217 kts 234°
2026-04-21 10:20 25.27634 55.24588 3211 ft 217 kts 234°
2026-04-21 10:20 25.26797 55.23216 3577 ft 215 kts 240°
2026-04-21 10:20 25.26111 55.21751 3913 ft 216 kts 245°
2026-04-21 10:21 25.25493 55.20232 4262 ft 216 kts 245°
2026-04-21 10:21 25.24877 55.18710 4599 ft 218 kts 244°
2026-04-21 10:21 25.24144 55.17485 4850 ft 217 kts 217°
2026-04-21 10:21 25.22781 55.16868 5177 ft 215 kts 188°
2026-04-21 10:22 25.21770 55.16814 5384 ft 215 kts 175°
2026-04-21 10:22 25.20267 55.16996 5634 ft 220 kts 171°
2026-04-21 10:22 25.19011 55.17493 5948 ft 219 kts 148°
2026-04-21 10:22 25.17987 55.18752 6046 ft 227 kts 122°
2026-04-21 10:23 25.17239 55.20340 6064 ft 239 kts 117°
2026-04-21 10:23 25.16487 55.22085 6269 ft 264 kts 117°
2026-04-21 10:23 25.15644 55.23950 6638 ft 277 kts 120°
2026-04-21 10:23 25.14730 55.25828 7232 ft 278 kts 120°
2026-04-21 10:24 25.13779 55.27710 7759 ft 286 kts 122°
2026-04-21 10:24 25.12753 55.29654 8219 ft 300 kts 122°
2026-04-21 10:24 25.11723 55.31681 8897 ft 303 kts 120°
2026-04-21 10:24 25.10754 55.33759 9642 ft 306 kts 118°
2026-04-21 10:25 25.09841 55.35907 10287 ft 311 kts 117°
2026-04-21 10:25 25.08917 55.38054 11041 ft 309 kts 118°
2026-04-21 10:25 25.08039 55.40059 11736 ft 310 kts 117°
2026-04-21 10:25 25.07110 55.42216 12420 ft 314 kts 117°
2026-04-21 10:26 25.06194 55.44472 12674 ft 332 kts 115°
2026-04-21 10:26 25.05264 55.46883 12868 ft 351 kts 114°
2026-04-21 10:26 25.04406 55.49135 13123 ft 363 kts 114°
2026-04-21 10:26 25.03422 55.51715 13760 ft 366 kts 115°
2026-04-21 10:27 25.02431 55.54303 14342 ft 369 kts 115°
2026-04-21 10:27 25.01258 55.56838 14842 ft 372 kts 123°
2026-04-21 10:27 24.99912 55.59291 15400 ft 376 kts 123°
2026-04-21 10:27 24.98560 55.61779 15946 ft 380 kts 122°
2026-04-21 10:28 24.97200 55.64297 16457 ft 385 kts 122°
2026-04-21 10:28 24.95825 55.66842 17007 ft 388 kts 122°
2026-04-21 10:28 24.94598 55.69115 17482 ft 391 kts 123°
2026-04-21 10:28 24.93067 55.71602 17961 ft 394 kts 128°
2026-04-21 10:29 24.91432 55.74046 18433 ft 398 kts 128°
2026-04-21 10:29 24.89790 55.76515 18882 ft 401 kts 128°
2026-04-21 10:29 24.88138 55.79006 19323 ft 404 kts 128°
2026-04-21 10:29 24.86473 55.81516 19732 ft 408 kts 128°
2026-04-21 10:30 24.84791 55.84052 20197 ft 410 kts 128°
2026-04-21 10:30 24.83101 55.86591 20611 ft 414 kts 129°
2026-04-21 10:30 24.81576 55.88849 20976 ft 417 kts 129°
2026-04-21 10:30 24.79831 55.91416 21411 ft 419 kts 129°
2026-04-21 10:31 24.78010 55.93925 21780 ft 421 kts 135°
2026-04-21 10:31 24.75916 55.96183 22202 ft 422 kts 141°
2026-04-21 10:31 24.73986 55.98141 22577 ft 425 kts 140°
2026-04-21 10:31 24.71819 56.00363 22982 ft 428 kts 140°
2026-04-21 10:32 24.69639 56.02607 23387 ft 431 kts 140°
2026-04-21 10:32 24.67439 56.04872 23742 ft 434 kts 140°
2026-04-21 10:32 24.65248 56.07131 24142 ft 435 kts 140°
2026-04-21 10:32 24.63271 56.09168 24433 ft 438 kts 140°
2026-04-21 10:33 24.61043 56.11462 24824 ft 440 kts 140°
2026-04-21 10:33 24.58803 56.13767 25209 ft 442 kts 140°
2026-04-21 10:33 24.56602 56.16147 25595 ft 447 kts 135°
2026-04-21 10:33 24.54809 56.18442 25973 ft 449 kts 133°
2026-04-21 10:34 24.52769 56.21060 26390 ft 452 kts 134°
2026-04-21 10:34 24.50715 56.23679 26821 ft 454 kts 134°
2026-04-21 10:34 24.48648 56.26309 27294 ft 456 kts 133°
2026-04-21 10:34 24.46567 56.28954 27760 ft 459 kts 133°
2026-04-21 10:35 24.44470 56.31619 28167 ft 463 kts 133°
2026-04-21 10:35 24.42354 56.34307 28558 ft 467 kts 133°
2026-04-21 10:35 24.40222 56.37016 29045 ft 469 kts 133°
2026-04-21 10:35 24.38329 56.39421 29446 ft 472 kts 133°
2026-04-21 10:36 24.36174 56.42157 29905 ft 475 kts 133°
2026-04-21 10:36 24.34006 56.44906 30284 ft 479 kts 133°
2026-04-21 10:36 24.31817 56.47680 30631 ft 483 kts 133°
2026-04-21 10:36 24.29640 56.50500 31004 ft 487 kts 129°
2026-04-21 10:37 24.27637 56.53507 31361 ft 491 kts 127°
2026-04-21 10:37 24.25626 56.56556 31732 ft 495 kts 127°
2026-04-21 10:37 24.23600 56.59615 32093 ft 498 kts 127°
2026-04-21 10:37 24.21789 56.62345 32416 ft 501 kts 128°
2026-04-21 10:38 24.19735 56.65436 32793 ft 504 kts 128°
2026-04-21 10:38 24.17664 56.68551 33149 ft 507 kts 128°
2026-04-21 10:38 24.15580 56.71683 33509 ft 511 kts 128°
2026-04-21 10:38 24.13507 56.74796 33873 ft 514 kts 128°
2026-04-21 10:39 24.11391 56.77972 34119 ft 519 kts 128°
2026-04-21 10:39 24.09254 56.81178 34352 ft 524 kts 127°
2026-04-21 10:39 24.07071 56.84451 34617 ft 528 kts 127°
2026-04-21 10:39 24.05105 56.87397 34912 ft 530 kts 127°
2026-04-21 10:40 24.02921 56.90666 35220 ft 533 kts 127°
2026-04-21 10:40 24.00727 56.93947 35524 ft 536 kts 127°
2026-04-21 10:40 23.98521 56.97243 35824 ft 539 kts 127°
2026-04-21 10:40 23.96553 57.00179 36105 ft 541 kts 127°
2026-04-21 10:41 23.94321 57.03511 36405 ft 544 kts 127°
2026-04-21 10:41 23.92078 57.06855 36693 ft 547 kts 127°
2026-04-21 10:41 23.89826 57.10211 36997 ft 549 kts 127°
2026-04-21 10:41 23.87816 57.13204 37335 ft 550 kts 126°
2026-04-21 10:42 23.85555 57.16570 37624 ft 552 kts 126°
2026-04-21 10:42 23.83278 57.19959 37920 ft 554 kts 126°
2026-04-21 10:42 23.80994 57.23356 38220 ft 556 kts 126°
2026-04-21 10:42 23.78697 57.26770 38510 ft 558 kts 126°
2026-04-21 10:43 23.76397 57.30188 38751 ft 560 kts 126°
2026-04-21 10:43 23.71767 57.37051 38844 ft 559 kts 126°
2026-04-21 10:44 23.66963 57.43729 38831 ft 560 kts 128°
2026-04-21 10:44 23.62095 57.50330 38828 ft 558 kts 128°
2026-04-21 10:45 23.57534 57.56568 38843 ft 558 kts 128°
2026-04-21 10:45 23.52703 57.63192 38837 ft 558 kts 128°
2026-04-21 10:46 23.48138 57.69444 38867 ft 558 kts 128°
2026-04-21 10:46 23.43306 57.76047 38845 ft 557 kts 128°
2026-04-21 10:47 23.38757 57.82255 38840 ft 556 kts 128°
2026-04-21 10:47 23.33927 57.88837 38839 ft 556 kts 128°
2026-04-21 10:48 23.29111 57.95393 38831 ft 553 kts 128°
2026-04-21 10:48 23.24327 58.01958 38840 ft 553 kts 124°
2026-04-21 10:49 23.20255 58.08410 38826 ft 553 kts 123°
2026-04-21 10:49 23.15908 58.15304 38833 ft 553 kts 123°
2026-04-21 10:50 23.11550 58.22188 38859 ft 552 kts 123°
2026-04-21 10:50 23.07196 58.29059 38843 ft 552 kts 123°
2026-04-21 10:51 23.03610 58.35828 38849 ft 545 kts 107°
2026-04-21 10:51 23.02532 58.39747 38820 ft 540 kts 96°
2026-04-21 10:51 23.02068 58.43755 38823 ft 532 kts 86°
2026-04-21 10:52 23.02281 58.51263 38848 ft 528 kts 82°
2026-04-21 10:52 23.02547 58.59231 38842 ft 527 kts 82°
2026-04-21 10:53 23.02789 58.66739 38826 ft 527 kts 82°
2026-04-21 10:53 23.03046 58.74689 38813 ft 527 kts 82°
2026-04-21 10:54 23.03299 58.82638 38804 ft 526 kts 82°
2026-04-21 10:54 23.03549 58.90581 38802 ft 527 kts 83°
2026-04-21 10:55 23.03795 58.98530 38807 ft 527 kts 83°
2026-04-21 10:55 23.03876 59.01163 38812 ft 527 kts 83°